Lid_Strength_Index
11 11 11 11 10 10 10 10 10 7 6 6 5 5 5 5 5 5 5 4 4 5 5 4 3 4 5
12 11 12 11 11 11 9 9 10 8 6 6 5 5 4 5 5 5 5 5 5 5 5 6 5 4 4
12 11 11 11 12 11 11 11 10 8 7 6 6 5 5 4 4 5 5 5 5 5 6 6 6 5 5
13 13 12 11 12 12 11 11 11 9 8 7 6 6 5 5 4 5 5 5 4 5 6 6 6 7 6
12 12 12 12 12 10 12 11 11 11 10 10 10 10 10 8 6 5 5 4 4 4 5 5 6 6 7
12 12 11 10 10 9 10 10 12 10 12 10 10 10 9 10 7 6 5 5 4 4 4 5 6 6 6
12 12 11 11 10 10 11 10 10 9 8 10 9 9 8 7 6 5 5 4 4 4 4 4 6 6 6
10 9 9 8 9 8 9 9 8 8 7 10 8 9 7 8 6 5 4 4 4 4 4 4 5 5 5
6 5 5 4 4 6 7 8 9 9 7 7 8 8 7 7 6 4 4 3 3 3 4 4 5 5 6
8 6 5 5 3 5 6 7 7 8 7 7 8 8 8 7 8 7 6 4 2 2 3 4 4 8 9
8 8 7 7 6 5 5 6 6 7 5 5 6 6 6 7 6 7 7 6 3 3 2 2 3 6 10
9 9 8 8 7 6 5 5 4 4 4 3 5 6 7 7 7 8 6 6 5 5 4 2 2 4 5
9 8 8 7 6 7 6 5 4 4 4 4 4 5 5 7 7 6 6 6 5 5 5 4 5 6 7
7 6 6 7 7 7 7 5 5 5 3 4 4 3 4 4 4 5 5 7 7 5 5 5 6 6 7
6 6 6 6 7 7 9 7 6 6 6 6 4 4 4 4 4 4 4 4 5 6 6 7 6 6 6
6 6 7 7 7 5 5 6 6 6 7 6 8 6 4 4 2 4 4 4 4 4 4 7 7 6 6
7 7 7 8 7 11 9 7 7 7 7 7 6 7 7 8 6 2 5 5 5 5 7 8 8 7 6